Weather History for Alpine, TX

Change the Weather History Date:

Wednesday, October 30, 2013

  Actual Average (KMRF) Record (KMRF)
Temperature  
Mean Temperature 68 °F -  
Max Temperature 74 °F 68 °F 82 °F (2010)
Min Temperature 61 °F 39 °F 30 °F (1996)
Cooling Degree Days 2    
Growing Degree Days 18 (Base 50)    
Moisture  
Dew Point 50 °F    
Average Humidity 56    
Maximum Humidity 87    
Minimum Humidity 33    
Precipitation  
Precipitation 0.00 in - - ()
Sea Level Pressure  
Sea Level Pressure 30.07 in    
Wind  
Wind Speed 8 mph (SW)    
Max Wind Speed 20 mph    
Max Gust Speed 30 mph    
Visibility 10 miles    
Events      
Averages and records for this station are not official NWS values.
T = Trace of Precipitation, MM = Missing Value Source: NWS Daily Summary

Daily Weather History Graph

Daily Weather History Graph

Search for Another Location

Airport:

Trip Planner

Search our weather history database for the weather conditions in past years. The results will help you decide how hot, cold, wet, or windy it might be!

Date:

Astronomy

Oct. 30, 2013 Rise Set
Actual Time 8:07 AM CDT 7:08 PM CDT
Civil Twilight 7:43 AM CDT 7:33 PM CDT
Nautical Twilight 7:14 AM CDT 8:01 PM CDT
Astronomical Twilight 6:46 AM CDT 8:29 PM CDT
Moon 4:15 AM CDT (10/30) 4:41 PM CDT (10/30)
Length of Visible Light 11h 50m
Length of Day
11h 00m
Waning Crescent, 17% of the Moon is Illuminated
Oct 30
Waning Crescent
Nov 3
New
Nov 9
First Quarter
Nov 17
Full
Nov 25
Last Quarter

Hourly Weather History & Observations

Time (CDT) Temp. Dew Point Humidity Pressure Visibility Wind Dir Wind Speed Gust Speed Precip Events Conditions
12:15 AM 64.6 °F 59.4 °F 83% 30.11 in 10.0 mi SW 3.5 mph - N/A   Clear
12:35 AM 64.6 °F 59.9 °F 85% 30.09 in 10.0 mi SSW 4.6 mph - N/A   Clear
12:55 AM 64.2 °F 59.5 °F 85% 30.10 in 10.0 mi WSW 3.5 mph - N/A   Clear
1:15 AM 64.8 °F 60.8 °F 87% 30.09 in 10.0 mi SW 10.4 mph - N/A   Clear
1:35 AM 65.3 °F 60.4 °F 84% 30.09 in 10.0 mi SSW 8.1 mph - N/A   Clear
1:55 AM 65.3 °F 59.9 °F 83% 30.09 in 10.0 mi SSW 6.9 mph - N/A   Clear
2:15 AM 65.7 °F 59.0 °F 79% 30.08 in 10.0 mi SW 6.9 mph - N/A   Clear
2:35 AM 67.3 °F 56.3 °F 68% 30.08 in 10.0 mi SSW 8.1 mph - N/A   Clear
2:55 AM 67.6 °F 54.3 °F 62% 30.08 in 10.0 mi SSW 8.1 mph - N/A   Clear
3:15 AM 66.9 °F 54.3 °F 64% 30.08 in 10.0 mi SSW 8.1 mph - N/A   Clear
3:35 AM 66.9 °F 54.7 °F 65% 30.07 in 10.0 mi SSW 6.9 mph - N/A   Clear
3:55 AM 67.1 °F 51.4 °F 57% 30.06 in 10.0 mi SW 4.6 mph - N/A   Clear
4:15 AM 67.5 °F 47.8 °F 49% 30.07 in 10.0 mi SW 6.9 mph - N/A   Clear
4:35 AM 66.7 °F 47.5 °F 50% 30.08 in 10.0 mi SW 8.1 mph - N/A   Clear
4:55 AM 66.0 °F 49.6 °F 55% 30.08 in 10.0 mi West 4.6 mph - N/A   Clear
5:15 AM 64.2 °F 52.9 °F 67% 30.08 in 10.0 mi WSW 5.8 mph - N/A   Clear
5:35 AM 63.7 °F 55.8 °F 75% 30.08 in 10.0 mi WSW 4.6 mph - N/A   Clear
5:55 AM 63.3 °F 54.3 °F 72% 30.08 in 10.0 mi Calm Calm - N/A   Clear
6:15 AM 62.6 °F 55.2 °F 77% 30.09 in 10.0 mi Calm Calm - N/A   Clear
6:35 AM 62.2 °F 55.0 °F 77% 30.09 in 10.0 mi West 4.6 mph - N/A   Clear
6:55 AM 63.5 °F 55.0 °F 74% 30.09 in 10.0 mi West 8.1 mph - N/A   Clear
7:15 AM 63.7 °F 54.5 °F 72% 30.09 in 10.0 mi West 9.2 mph - N/A   Clear
7:35 AM 63.7 °F 54.5 °F 72% 30.09 in 10.0 mi WSW 3.5 mph - N/A   Clear
7:55 AM 62.1 °F 54.0 °F 75% 30.10 in 10.0 mi West 3.5 mph - N/A   Clear
8:15 AM 62.6 °F 51.4 °F 67% 30.09 in 10.0 mi Calm Calm - N/A   Clear
8:35 AM 63.5 °F 50.4 °F 62% 30.09 in 10.0 mi WSW 5.8 mph - N/A   Clear
8:55 AM 63.1 °F 50.5 °F 63% 30.09 in 10.0 mi WSW 4.6 mph - N/A   Clear
9:15 AM 64.4 °F 51.6 °F 63% 30.10 in 10.0 mi SW 3.5 mph - N/A   Clear
9:35 AM 65.5 °F 49.5 °F 56% 30.12 in 10.0 mi SW 10.4 mph - N/A   Clear
9:55 AM 66.9 °F 44.6 °F 45% 30.13 in 10.0 mi SW 12.7 mph - N/A   Clear
10:15 AM 68.2 °F 41.2 °F 37% 30.14 in 10.0 mi SW 11.5 mph - N/A   Mostly Cloudy
10:35 AM 68.5 °F 41.5 °F 37% 30.15 in 10.0 mi SW 9.2 mph - N/A   Mostly Cloudy
10:55 AM 68.2 °F 42.8 °F 40% 30.15 in 10.0 mi WSW 6.9 mph - N/A   Mostly Cloudy
11:15 AM 68.0 °F 44.2 °F 42% 30.15 in 10.0 mi SW 11.5 mph - N/A   Scattered Clouds
11:35 AM 68.4 °F 44.4 °F 42% 30.14 in 10.0 mi SSW 10.4 mph - N/A   Mostly Cloudy
11:55 AM 69.3 °F 44.2 °F 40% 30.14 in 10.0 mi SSW 11.5 mph - N/A   Scattered Clouds
12:15 PM 69.8 °F 44.2 °F 40% 30.13 in 10.0 mi SW 6.9 mph - N/A   Clear
12:35 PM 70.3 °F 44.1 °F 39% 30.11 in 10.0 mi SSW 11.5 mph - N/A   Scattered Clouds
12:55 PM 71.4 °F 44.2 °F 38% 30.10 in 10.0 mi SSW 11.5 mph - N/A   Scattered Clouds
1:15 PM 71.6 °F 44.1 °F 37% 30.10 in 10.0 mi SSW 12.7 mph - N/A   Clear
1:35 PM 72.5 °F 42.4 °F 34% 30.09 in 10.0 mi SSW 12.7 mph 19.6 mph N/A   Clear
1:55 PM 72.9 °F 42.1 °F 33% 30.08 in 10.0 mi SSW 11.5 mph - N/A   Clear
2:15 PM 72.9 °F 43.0 °F 34% 30.06 in 10.0 mi SSW 15.0 mph - N/A   Clear
2:35 PM 74.7 °F 44.8 °F 34% 30.05 in 10.0 mi SSW 15.0 mph 21.9 mph N/A   Clear
2:55 PM 74.1 °F 44.2 °F 34% 30.04 in 10.0 mi South 15.0 mph 23.0 mph N/A   Scattered Clouds
3:15 PM 73.0 °F 43.7 °F 35% 30.04 in 10.0 mi SSW 16.1 mph - N/A   Clear
3:35 PM 73.4 °F 44.1 °F 35% 30.04 in 10.0 mi SSW 11.5 mph 21.9 mph N/A   Scattered Clouds
3:55 PM 73.4 °F 44.1 °F 35% 30.03 in 10.0 mi SW 15.0 mph 24.2 mph N/A   Clear
4:15 PM 73.2 °F 44.2 °F 35% 30.03 in 10.0 mi SSW 18.4 mph - N/A   Scattered Clouds
4:35 PM 71.8 °F 44.6 °F 38% 30.01 in 10.0 mi SSW 19.6 mph 26.5 mph N/A   Mostly Cloudy
4:55 PM 69.1 °F 47.7 °F 46% 30.02 in 10.0 mi SSW 10.4 mph - N/A   Mostly Cloudy
5:15 PM 70.5 °F 45.9 °F 41% 30.03 in 10.0 mi SW 15.0 mph - N/A   Overcast
5:35 PM 64.4 °F 50.5 °F 61% 30.03 in 10.0 mi SSW 15.0 mph 25.3 mph N/A   Overcast
5:55 PM 65.3 °F 50.2 °F 58% 30.03 in 10.0 mi South 18.4 mph 23.0 mph N/A   Overcast
6:15 PM 65.5 °F 48.6 °F 54% 30.04 in 10.0 mi SW 12.7 mph 21.9 mph N/A   Mostly Cloudy
7:55 PM 61.2 °F 51.4 °F 70% 30.04 in 10.0 mi SSW 10.4 mph - N/A   Scattered Clouds
8:15 PM 61.7 °F 50.9 °F 68% 30.03 in 10.0 mi South 16.1 mph 20.7 mph N/A   Scattered Clouds
8:35 PM 61.7 °F 51.1 °F 68% 30.04 in 10.0 mi SSW 13.8 mph 18.4 mph N/A   Mostly Cloudy
8:55 PM 62.2 °F 49.8 °F 64% 30.03 in 10.0 mi South 11.5 mph 17.3 mph N/A   Mostly Cloudy
9:15 PM 62.1 °F 49.5 °F 63% 30.02 in 10.0 mi SSW 9.2 mph - N/A   Scattered Clouds
9:35 PM 63.1 °F 48.4 °F 59% 30.04 in 10.0 mi WSW 12.7 mph 17.3 mph N/A   Scattered Clouds
9:55 PM 63.5 °F 47.1 °F 55% 30.01 in 10.0 mi SW 12.7 mph - N/A   Overcast
10:15 PM 63.9 °F 46.2 °F 53% 30.01 in 10.0 mi SW 18.4 mph 25.3 mph N/A   Scattered Clouds
10:35 PM 64.6 °F 45.5 °F 50% 30.02 in 10.0 mi SW 19.6 mph 28.8 mph N/A   Clear
10:55 PM 64.0 °F 46.4 °F 53% 30.02 in 10.0 mi SW 18.4 mph 29.9 mph N/A   Clear
11:15 PM 63.5 °F 46.9 °F 55% 30.01 in 10.0 mi SSW 17.3 mph 26.5 mph N/A   Clear
11:35 PM 63.3 °F 47.3 °F 56% 30.02 in 10.0 mi SW 18.4 mph 24.2 mph N/A   Clear
11:55 PM 63.1 °F 46.6 °F 55% 30.02 in 10.0 mi SW 18.4 mph 29.9 mph N/A   Clear